Dewpoint
67 59 56 51 35 43 40 44 50 51 50 52 53 52 51 53 50 52 64 62 65 70 72 71 75 75 75 75 76 76 76 76 76 76 76 76 76 74 74 74 74 72 71 72 73 73 73 73 74
62 53 48 49 33 31 36 44 47 49 50 54 54 53 52 52 60 61 61 64 68 71 72 71 74 75 75 75 75 75 75 75 75 75 75 75 75 74 74 74 74 72 71 71 72 72 72 73 73
53 47 37 36 37 26 34 39 46 50 50 50 53 54 53 57 61 60 63 65 69 71 71 72 75 75 75 74 75 75 75 75 75 74 74 74 74 74 75 75 74 73 71 71 72 72 73 73 73
44 44 43 34 26 34 35 44 49 49 50 50 52 54 59 63 61 64 65 65 68 70 71 73 75 75 75 74 75 75 75 75 74 73 73 73 73 75 75 75 74 73 72 71 71 72 73 73 72
45 40 31 30 30 35 38 38 39 48 49 49 52 54 57 65 66 66 66 65 66 68 70 72 75 75 75 74 74 75 75 75 75 74 73 73 74 75 75 75 75 74 72 72 72 72 74 74 73
37 39 24 14 25 33 34 34 35 44 49 50 51 54 58 66 66 67 67 65 65 68 68 71 75 75 75 74 75 75 75 75 75 75 75 74 74 75 75 75 75 75 73 73 73 73 73 73 73
32 33 19 23 21 23 22 29 29 29 30 37 52 52 61 64 66 68 67 66 66 67 68 70 71 73 75 75 75 75 75 75 75 75 75 75 75 75 75 75 75 75 75 75 73 73 73 73 72
38 37 31 28 22 19 31 25 27 27 27 47 49 49 57 63 66 67 66 65 65 67 67 71 71 69 69 70 74 75 75 75 75 75 75 75 75 74 74 74 75 74 74 74 73 72 72 72 72
31 28 18 19 26 23 27 26 26 27 34 44 53 57 61 64 65 65 64 63 66 68 69 69 69 68 67 65 71 74 74 74 74 74 75 74 68 69 70 71 73 73 73 73 72 72 73 72 72
13 16 20 25 28 25 27 26 28 39 42 51 59 62 63 64 64 62 61 62 65 66 69 69 69 69 68 66 68 68 69 69 69 70 71 69 69 69 68 70 72 72 72 72 72 72 72 71 67
23 12 20 27 27 28 27 27 20 42 48 53 57 61 62 62 62 60 59 60 63 66 68 70 71 71 67 65 68 67 67 69 70 71 71 70 68 68 66 66 65 68 70 66 68 68 67 66 66
23 24 23 13 25 26 25 27 29 39 50 52 60 61 62 61 59 59 58 59 61 64 68 69 70 70 69 67 68 68 68 69 69 70 72 70 68 68 66 63 64 66 66 67 67 65 67 68 68
24 28 26 20 21 24 26 25 27 26 33 60 61 61 61 60 59 58 58 60 62 63 66 69 70 70 70 70 68 68 68 69 69 70 70 68 67 66 65 64 63 63 65 65 66 65 65 66 67
27 22 23 28 29 28 25 25 24 47 58 60 60 60 60 60 60 60 59 59 63 65 66 68 70 71 70 69 70 68 69 69 70 70 69 70 68 68 65 65 64 64 64 65 66 65 65 64 64
30 25 26 23 25 27 24 18 20 53 58 59 59 60 60 61 61 61 61 61 61 64 66 68 69 71 71 71 70 70 68 68 68 69 71 70 70 69 67 65 65 65 66 66 67 67 67 66 65
17 16 16 12 17 14 19 16 39 56 57 57 58 59 59 61 62 62 63 64 64 63 66 68 68 70 72 71 71 70 69 68 68 68 69 70 70 70 69 65 65 65 67 67 67 67 66 66 66
12 10 11 10 13 12 14 13 50 57 57 57 58 59 60 62 64 65 64 64 66 66 65 67 68 69 71 71 71 71 71 70 68 68 67 68 69 69 69 67 66 69 66 66 66 65 68 66 67
11 11 12 13 9 12 18 32 55 57 57 57 58 59 60 61 62 64 64 65 66 67 67 68 68 69 70 70 70 70 70 69 69 68 67 68 66 66 68 67 68 69 67 66 67 68 67 67 66
12 11 10 12 14 15 17 44 54 57 57 57 58 60 60 61 62 63 63 64 65 66 67 67 68 69 68 67 66 66 64 66 67 68 68 68 68 67 68 66 68 70 69 69 70 68 69 68 69
11 12 13 22 22 19 39 48 53 56 56 57 58 59 60 61 61 61 62 62 63 64 65 66 67 68 69 67 68 67 67 67 68 70 68 68 68 70 70 70 70 70 68 68 67 67 66 65 66
16 14 17 22 39 47 43 46 50 53 55 57 59 60 60 61 61 61 60 61 61 62 62 64 65 66 68 69 68 69 68 68 67 67 67 68 67 68 67 68 68 69 68 66 67 66 65 64 64
15 17 12 32 31 32 31 24 46 51 53 56 57 60 61 59 60 60 61 61 61 60 61 62 63 64 66 68 68 69 66 66 66 66 65 63 63 63 64 66 67 66 67 66 66 66 66 64 62
16 7 8 24 25 25 27 25 39 49 51 53 55 58 59 59 59 59 60 59 58 59 59 60 62 62 64 66 67 66 64 62 62 61 61 59 58 57 58 60 61 62 64 64 64 64 64 64 63
10 11 13 12 17 20 12 10 25 45 48 51 53 57 58 57 57 57 58 57 57 56 57 58 60 60 61 62 63 64 62 60 59 59 58 58 57 55 55 57 58 59 58 58 59 61 62 63 63
11 14 9 10 10 15 12 8 20 41 48 50 52 54 57 56 55 56 55 55 55 55 55 56 57 57 58 59 60 60 58 58 57 56 55 55 54 53 55 56 57 56 57 57 57 58 58 57 57
12 18 15 17 12 4 15 10 13 27 43 46 49 52 55 56 56 55 55 55 54 53 53 54 55 55 55 55 55 55 56 53 53 53 52 51 51 51 53 54 54 54 54 54 55 55 55 56 55
14 12 16 17 17 7 9 16 29 41 43 45 46 50 54 55 55 56 56 55 54 54 54 53 54 54 54 54 54 54 53 53 52 52 53 50 52 51 52 52 52 52 52 52 53 51 52 53 52
18 15 15 15 17 12 9 15 12 28 34 43 46 49 52 55 54 55 55 55 54 53 53 53 54 53 53 53 53 52 53 53 53 53 52 52 52 52 51 51 51 51 51 51 51 50 50 51 49
15 14 18 19 17 16 12 12 25 34 39 41 43 48 51 53 54 54 55 55 54 53 53 53 53 53 52 52 52 52 52 52 52 52 52 51 51 51 50 50 49 48 49 49 49 49 48 48 48
16 19 24 19 22 19 17 14 40 43 43 44 44 46 49 52 53 53 53 54 54 53 52 52 53 52 52 52 52 52 52 51 51 51 51 50 50 50 49 48 48 47 47 48 47 46 46 46 45
Lifted_Index
1 3 4 4 4 3 2 1 1 0 0 0 0 0 -0 -0 -0 1 2 2 1 -2 -2 -2 -2 -3 -3 -3 -3 -3 -3 -3 -3 -3 -3 -3 -3 -3 -3 -2 -2 -1 -1 -1 -2 -2 -2 -3 -3
3 4 4 4 3 2 2 1 1 0 0 -0 -0 -0 -0 -0 0 1 2 2 -0 -2 -3 -2 -3 -3 -3 -3 -3 -3 -3 -3 -3 -3 -3 -3 -3 -3 -3 -2 -2 -1 -1 -1 -2 -2 -2 -2 -3
5 5 5 4 3 2 1 1 1 0 -0 -0 -0 -0 -0 0 1 2 2 1 -1 -2 -3 -3 -3 -3 -3 -3 -3 -3 -3 -3 -2 -2 -2 -2 -2 -3 -3 -3 -2 -2 -2 -1 -2 -2 -2 -2 -2
7 6 5 3 3 2 1 1 1 0 -0 -0 -1 -1 -1 -0 0 1 1 1 -1 -3 -4 -4 -4 -4 -3 -3 -3 -3 -3 -3 -2 -2 -2 -2 -2 -3 -4 -3 -3 -2 -2 -2 -2 -2 -2 -2 -2
7 6 4 3 2 2 2 2 1 0 -0 -0 -1 -1 -1 -1 -0 -0 0 -0 -1 -3 -4 -4 -4 -4 -3 -3 -3 -3 -4 -3 -3 -3 -2 -2 -3 -3 -4 -4 -4 -3 -3 -2 -2 -3 -3 -3 -2
6 6 4 2 2 3 3 3 2 2 1 -0 -1 -2 -2 -1 -1 -1 -1 -1 -1 -2 -3 -4 -4 -4 -3 -3 -3 -4 -4 -4 -4 -3 -3 -3 -3 -4 -4 -4 -4 -4 -3 -3 -3 -3 -3 -3 -3
6 5 3 2 2 3 4 5 4 3 2 0 -1 -2 -2 -2 -1 -2 -2 -2 -2 -2 -3 -4 -4 -3 -3 -3 -3 -4 -5 -5 -4 -4 -4 -4 -4 -4 -4 -4 -4 -4 -4 -4 -3 -3 -3 -2 -2
7 5 3 2 2 3 4 6 6 4 2 1 -0 -1 -2 -2 -2 -2 -2 -2 -2 -2 -3 -3 -3 -3 -2 -2 -3 -4 -5 -5 -5 -4 -4 -4 -4 -3 -3 -3 -4 -4 -4 -4 -3 -3 -2 -2 -2
7 5 3 3 3 3 4 6 6 4 2 1 -1 -2 -2 -2 -2 -2 -2 -1 -2 -2 -3 -3 -3 -3 -2 -2 -2 -3 -4 -4 -4 -4 -4 -3 -3 -3 -2 -3 -3 -3 -3 -3 -3 -3 -3 -3 -3
6 5 3 4 4 4 5 6 5 3 1 -1 -2 -3 -2 -2 -2 -2 -1 -1 -2 -2 -3 -4 -4 -3 -2 -2 -2 -3 -3 -3 -3 -3 -3 -3 -2 -2 -2 -2 -2 -2 -3 -3 -3 -3 -3 -3 -3
6 5 5 5 5 5 5 5 4 2 -0 -2 -3 -3 -2 -2 -2 -2 -1 -1 -1 -2 -3 -4 -4 -3 -3 -2 -2 -2 -3 -3 -3 -3 -3 -3 -2 -2 -1 -1 -1 -2 -2 -2 -3 -3 -3 -3 -3
6 6 6 6 6 6 5 6 4 1 -2 -3 -4 -3 -2 -2 -2 -2 -1 -1 -1 -2 -3 -4 -4 -4 -3 -3 -3 -3 -3 -3 -3 -3 -3 -3 -2 -1 -1 -1 -1 -1 -2 -2 -2 -2 -3 -3 -3
7 7 7 7 7 6 6 6 4 1 -2 -4 -4 -3 -3 -2 -2 -2 -1 -1 -1 -2 -3 -4 -4 -4 -3 -3 -3 -3 -3 -3 -3 -3 -3 -2 -2 -1 -1 -0 -0 -0 -1 -2 -2 -2 -2 -3 -3
7 8 8 8 7 6 6 6 4 0 -3 -4 -4 -3 -3 -2 -2 -2 -2 -2 -2 -2 -3 -3 -4 -4 -4 -3 -3 -3 -3 -3 -3 -3 -3 -3 -2 -2 -1 -1 -1 -1 -1 -2 -2 -2 -2 -2 -2
7 7 7 7 7 6 6 5 3 -1 -4 -5 -4 -4 -3 -3 -3 -3 -2 -2 -2 -2 -3 -3 -4 -4 -4 -4 -3 -3 -3 -3 -3 -3 -3 -3 -3 -2 -2 -1 -1 -1 -2 -2 -3 -3 -3 -2 -2
7 6 6 6 7 6 5 4 2 -2 -4 -5 -5 -4 -4 -3 -3 -3 -3 -3 -3 -3 -3 -3 -4 -4 -4 -4 -4 -4 -3 -3 -3 -3 -3 -3 -3 -3 -2 -2 -2 -2 -2 -3 -3 -3 -3 -3 -3
5 5 5 6 6 6 5 3 -0 -3 -4 -5 -5 -4 -4 -4 -4 -3 -3 -3 -3 -3 -3 -3 -4 -4 -4 -4 -4 -4 -4 -4 -4 -3 -3 -3 -3 -3 -3 -3 -2 -2 -3 -3 -3 -3 -4 -4 -4
4 4 5 5 5 5 4 2 -2 -4 -5 -5 -5 -5 -4 -4 -4 -3 -3 -3 -4 -3 -3 -3 -4 -4 -4 -4 -4 -4 -4 -4 -3 -3 -3 -3 -3 -3 -3 -3 -3 -3 -3 -3 -3 -3 -4 -4 -4
5 5 5 5 5 4 3 0 -2 -4 -5 -5 -5 -5 -4 -4 -4 -4 -3 -3 -3 -3 -3 -3 -3 -3 -3 -3 -3 -3 -3 -3 -3 -3 -3 -3 -3 -3 -3 -3 -3 -3 -3 -3 -3 -3 -3 -3 -3
5 5 4 4 4 3 2 -0 -2 -3 -4 -5 -5 -5 -4 -4 -4 -4 -4 -4 -4 -3 -3 -3 -3 -3 -3 -3 -3 -3 -3 -3 -3 -3 -2 -3 -3 -3 -3 -3 -3 -3 -2 -2 -2 -2 -2 -1 -1
4 4 3 3 3 2 1 -0 -2 -3 -4 -4 -5 -5 -5 -5 -5 -5 -5 -4 -4 -4 -4 -4 -4 -4 -3 -3 -4 -4 -3 -3 -3 -3 -3 -3 -3 -3 -2 -2 -2 -2 -2 -1 -2 -2 -1 -1 -1
4 3 3 3 2 2 1 1 -1 -2 -3 -4 -5 -5 -5 -5 -5 -5 -5 -5 -4 -4 -4 -4 -4 -4 -4 -3 -4 -4 -4 -3 -3 -3 -4 -4 -3 -3 -2 -2 -2 -2 -2 -2 -2 -2 -2 -1 -1
3 3 2 2 2 2 2 1 0 -2 -3 -4 -4 -4 -5 -5 -5 -5 -5 -4 -4 -4 -4 -5 -5 -5 -4 -4 -4 -4 -4 -4 -4 -4 -4 -4 -3 -3 -2 -2 -2 -2 -2 -1 -1 -1 -1 -1 -1
2 2 1 1 1 1 2 2 1 -1 -3 -4 -4 -4 -4 -5 -5 -5 -4 -3 -3 -4 -5 -5 -5 -5 -5 -5 -4 -4 -4 -4 -4 -4 -3 -3 -3 -3 -2 -1 -0 -0 0 0 0 0 -0 -0 -1
1 1 1 0 1 1 2 2 2 0 -2 -3 -4 -4 -4 -5 -5 -4 -3 -2 -2 -3 -4 -4 -5 -5 -5 -5 -4 -4 -4 -4 -3 -3 -2 -2 -1 -0 1 3 3 4 4 3 3 2 1 1 0
1 1 1 0 0 1 1 2 2 1 -0 -2 -2 -3 -3 -4 -4 -3 -2 -1 -1 -1 -2 -2 -2 -2 -2 -2 -2 -2 -2 -1 -0 1 1 2 3 4 6 7 8 8 7 7 6 5 4 3 2
1 1 1 1 1 1 1 2 2 1 1 -0 -1 -1 -2 -3 -3 -3 -1 0 1 1 1 1 1 1 1 2 2 3 3 4 5 5 6 7 7 8 9 9 10 9 9 9 8 7 6 6 5
1 1 1 1 1 0 1 1 2 2 1 1 0 -0 -1 -1 -2 -2 -0 1 2 3 4 4 4 4 4 5 5 6 7 7 8 8 9 9 9 10 10 10 10 10 10 10 9 9 8 8 7
1 1 1 1 1 1 1 1 2 2 2 1 0 -0 -0 -1 -1 -1 -0 1 2 3 4 5 5 5 5 6 6 7 8 8 9 9 9 10 10 10 10 10 10 10 10 10 9 9 9 8 8
0 0 0 1 1 1 1 1 2 3 2 2 1 0 -0 -1 -1 -1 -0 1 2 3 4 5 5 5 5 6 7 7 8 8 9 9 10 10 10 11 10 10 10 10 10 9 9 9 9 9 9